Theta_e
313 313 315 322 324 323 323 323 320 322 322 319 318 319 321 319 320 322 319 320 320 325 334 334 337 337 332 331 333 332 332 332 331 331 333 334 336 335 331 326 324 324 318 318 316 313 311 309 308
316 319 320 320 322 321 321 320 321 320 319 317 318 319 320 321 319 321 323 320 320 324 332 334 334 336 334 331 332 333 333 333 333 334 334 336 336 332 331 326 322 321 320 317 315 312 310 307 305
318 319 322 322 320 319 320 319 320 318 317 318 320 319 320 321 320 320 319 319 320 325 329 333 334 333 334 333 331 331 332 335 334 334 334 336 335 334 331 328 325 319 319 316 313 311 309 307 305
318 318 317 321 320 319 319 318 317 319 318 317 318 320 318 319 319 319 318 319 320 325 328 331 332 333 337 336 335 335 335 336 335 334 334 335 335 332 331 326 323 317 317 315 312 311 308 306 305
317 318 322 321 320 318 316 317 317 319 319 319 318 319 318 318 319 318 318 318 320 322 327 330 332 333 338 339 337 337 336 336 335 334 333 334 334 332 331 325 315 313 315 314 312 310 308 305 305
319 316 321 321 320 318 317 316 317 318 316 317 317 317 318 318 318 317 317 318 319 322 323 328 331 332 336 337 337 337 337 336 335 334 333 333 333 332 330 325 318 313 314 313 311 310 307 304 305
319 317 317 320 319 318 318 314 317 317 316 317 316 317 316 315 316 317 317 317 318 320 323 325 329 332 334 336 336 336 336 335 334 334 333 333 332 332 329 326 324 320 313 313 311 309 307 304 304
316 317 317 317 317 319 316 315 315 316 317 315 315 317 317 314 314 316 317 317 317 319 322 324 325 329 332 334 335 335 335 334 334 333 333 332 331 332 329 326 326 325 323 319 314 311 308 304 303
313 316 316 316 317 317 315 316 314 314 315 314 313 313 313 313 314 316 316 317 317 318 319 321 323 325 329 331 333 335 334 334 334 333 332 331 333 329 327 327 328 325 325 323 322 317 312 308 304
316 316 315 313 315 317 316 316 316 315 315 315 313 313 312 312 313 314 315 316 317 317 318 318 320 323 325 328 331 331 332 333 332 332 332 331 330 328 328 327 327 326 325 324 323 322 319 313 308
315 316 313 312 313 314 316 315 315 316 316 315 315 311 312 312 312 313 314 315 316 316 316 317 318 321 324 326 330 329 331 331 332 331 331 330 328 327 327 327 325 325 324 324 323 322 321 319 313
316 315 314 315 314 314 315 315 315 315 313 311 312 311 311 311 312 313 313 313 314 314 313 314 316 318 323 327 333 331 329 330 328 331 330 329 328 327 327 325 325 325 324 323 322 322 321 320 317
316 315 314 314 314 313 313 314 315 312 309 310 310 310 311 311 312 312 313 313 314 314 313 313 313 317 323 331 334 330 331 330 330 330 330 329 325 325 325 326 329 326 326 323 322 322 320 318 318
313 313 313 313 313 312 313 313 312 308 308 308 309 310 310 311 311 311 312 313 313 313 313 313 312 315 325 333 329 328 331 330 328 327 328 327 325 327 328 328 326 325 324 322 321 321 319 318 317
312 315 315 315 313 313 312 313 313 308 308 308 307 307 308 309 310 311 312 312 313 314 314 312 312 320 331 331 328 329 326 326 326 328 326 326 326 326 327 327 325 324 322 322 320 319 318 317 316
314 314 319 315 312 311 313 320 310 307 309 308 306 305 306 308 309 310 311 313 314 316 315 313 319 328 330 328 327 326 325 324 324 324 325 324 325 324 324 324 322 322 321 320 319 317 317 316 315
314 320 316 317 312 313 313 318 310 307 308 308 306 304 304 306 307 309 311 315 317 318 319 320 326 325 326 326 325 324 323 322 322 323 323 322 321 319 319 319 317 317 317 316 316 316 315 315 314
320 317 315 317 314 312 314 316 310 307 308 307 304 303 302 302 305 308 312 317 319 321 321 320 322 324 325 324 324 322 321 320 319 319 318 317 317 316 316 316 316 315 315 314 313 312 308 307 307
317 316 317 315 313 313 316 316 314 307 306 305 304 303 302 300 304 306 310 317 318 319 320 321 322 322 322 322 320 320 319 318 316 316 315 314 312 311 310 309 308 307 306 306 306 305 305 304 304
314 316 316 314 312 312 315 314 314 307 307 305 304 302 301 299 300 304 308 314 317 317 317 318 318 318 318 319 318 318 315 309 306 305 305 304 304 304 304 303 303 302 301 301 300 299 298 297 298
313 315 316 316 313 312 313 316 313 305 303 301 301 300 300 299 299 302 305 308 312 314 315 316 316 315 314 313 310 306 304 302 301 299 299 297 297 297 296 296 295 294 294 294 293 293 293 293 292
315 312 313 314 315 320 313 322 316 310 305 302 300 300 298 297 298 300 302 304 306 306 306 306 305 304 304 303 302 301 300 299 296 296 295 294 294 294 294 293 293 293 292 292 292 291 290 290 291
315 311 313 313 316 315 315 318 319 307 307 304 301 300 298 296 297 298 299 301 301 301 301 300 300 299 298 298 298 298 297 295 294 293 293 293 292 292 292 291 291 290 290 289 289 289 289 288 288
309 311 310 310 313 318 318 317 322 311 310 306 301 299 297 295 294 294 295 295 295 296 296 296 296 296 295 295 295 295 295 293 292 292 291 291 290 290 289 289 289 288 288 288 288 288 287 287 287
311 314 320 318 317 322 311 315 319 312 307 306 302 299 297 295 293 293 294 294 294 294 294 294 295 295 294 294 293 293 292 291 291 290 289 289 289 289 289 289 289 288 288 288 288 288 287 287 287
312 317 322 325 320 318 310 314 315 306 304 304 301 300 297 294 293 293 293 293 293 293 294 294 294 294 293 292 292 291 291 290 290 290 289 289 289 289 288 288 287 287 287 287 287 287 287 286 286
311 312 313 311 305 316 317 314 307 303 303 302 301 299 296 294 293 292 292 292 292 293 292 293 293 292 291 291 291 290 289 289 289 289 289 288 288 288 287 287 287 287 286 286 286 286 286 285 285
311 311 314 314 320 322 317 315 318 307 305 303 301 299 297 295 293 292 292 292 292 292 292 291 291 291 290 290 289 289 289 289 288 288 288 287 287 286 286 286 286 285 285 285 285 284 284 284 284
310 311 312 313 315 321 320 317 311 311 307 304 302 299 297 295 294 292 292 291 291 291 291 291 290 290 290 289 289 289 288 288 288 287 287 286 286 286 285 285 285 284 284 284 284 283 283 283 283
311 313 313 317 314 313 315 317 305 306 307 304 302 300 298 296 294 293 292 291 290 290 290 290 290 290 289 289 289 288 288 287 287 287 287 286 286 285 285 285 284 284 283 283 282 282 282 282 282
Wind_Speed
1 1 3 2 3 1 4 4 2 2 1 1 1 2 5 4 4 4 2 3 3 11 19 19 16 14 12 9 10 8 8 6 5 5 5 4 3 5 7 9 8 5 6 7 7 8 8 7 6
2 3 3 1 2 5 5 2 3 2 2 1 1 0 0 6 4 3 4 3 4 10 19 19 17 14 13 11 11 9 7 5 4 5 4 4 3 5 11 12 12 8 4 5 6 7 7 6 5
3 2 1 1 1 4 5 2 2 1 0 1 1 1 2 3 4 3 3 4 5 9 17 18 17 15 13 12 11 10 7 6 5 5 4 4 3 5 9 13 12 8 3 5 6 7 6 5 5
1 1 2 1 8 3 3 2 1 3 2 1 0 4 2 3 2 2 3 5 6 8 14 16 15 14 13 12 11 9 8 7 6 5 5 4 1 5 8 13 13 6 3 4 5 6 5 5 4
1 0 2 3 4 3 1 0 1 2 2 3 1 3 3 4 2 3 5 5 6 7 11 15 15 14 13 12 10 9 9 8 7 6 5 4 2 3 7 12 11 7 4 5 6 6 5 5 4
0 0 3 4 4 3 2 2 2 3 2 2 2 3 3 3 4 4 5 5 5 7 8 13 15 14 13 12 10 10 10 9 8 7 6 5 3 3 6 8 11 9 6 6 6 6 5 4 3
1 1 1 3 5 4 4 2 4 3 2 4 1 3 4 4 2 3 4 4 4 6 8 10 14 14 13 13 13 11 10 10 9 7 7 6 4 4 5 6 8 10 7 6 6 6 4 3 2
3 1 4 3 6 4 3 3 2 1 3 1 2 3 4 4 3 6 6 6 6 6 7 9 12 15 15 13 14 12 11 10 9 8 8 7 5 4 5 4 5 7 8 8 7 6 5 4 1
2 2 3 4 6 5 3 4 3 2 2 2 2 1 5 6 5 6 7 7 8 9 9 9 10 13 15 16 14 13 11 11 10 9 8 7 7 5 3 5 8 11 11 8 6 7 6 5 5
1 2 2 2 3 4 4 2 1 3 3 3 4 2 8 7 8 8 10 10 10 11 11 11 11 12 13 16 15 13 13 11 10 10 8 7 6 6 6 8 7 9 10 11 12 8 7 6 5
2 2 3 3 4 2 2 3 3 3 4 2 3 4 5 4 7 9 10 10 12 13 14 15 14 14 13 13 15 14 14 14 11 8 9 7 7 9 8 8 9 9 10 11 13 15 12 9 7
3 3 4 3 5 4 4 2 3 5 1 5 6 5 4 4 5 4 4 4 7 10 13 17 18 17 15 12 12 14 13 15 14 13 10 11 10 7 6 7 9 9 10 12 12 14 15 10 9
3 2 4 4 7 7 5 8 4 3 6 8 5 7 5 3 1 1 2 4 6 9 11 14 17 19 17 15 14 14 13 15 15 14 11 8 7 8 6 8 9 9 10 9 12 17 13 10 9
2 3 5 6 7 6 6 3 4 3 7 8 7 5 3 2 1 1 2 5 8 9 10 10 13 20 19 18 17 14 12 12 12 13 12 11 8 9 9 8 7 4 6 8 12 15 14 13 13
0 5 7 10 4 6 8 4 6 7 8 6 4 2 1 0 1 2 3 4 4 4 4 6 15 21 22 20 17 14 10 8 9 8 13 11 11 8 7 6 8 8 7 10 10 14 15 15 16
3 3 5 4 5 3 6 4 6 7 7 4 3 1 1 1 1 1 2 1 1 0 4 10 18 22 21 20 19 15 13 10 7 6 5 5 7 8 6 2 1 2 6 8 11 13 17 18 19
4 8 6 3 4 3 7 2 9 2 8 6 3 3 3 2 1 1 2 3 4 6 10 15 20 22 22 20 17 15 12 8 8 6 5 5 2 3 2 4 4 6 10 13 16 18 17 19 21
8 6 5 7 4 5 5 9 8 1 7 6 5 4 3 2 3 6 8 9 11 13 15 17 22 22 21 19 18 15 12 9 8 8 7 4 2 3 5 6 9 10 12 12 13 12 12 13 14
4 7 8 5 2 4 13 14 12 8 7 8 7 6 5 5 7 10 12 15 18 20 21 22 23 24 22 21 18 15 11 8 6 5 5 3 4 4 2 2 2 3 4 6 8 9 11 13 17
8 11 14 7 5 5 12 16 11 11 8 10 11 10 9 10 10 13 15 17 21 23 23 23 22 21 19 17 16 14 15 19 20 18 16 14 11 10 8 8 8 8 9 9 11 13 15 17 21
14 16 13 10 1 6 7 16 12 5 6 9 10 11 12 13 15 17 19 20 21 22 22 22 22 22 21 22 23 25 24 22 20 17 15 14 12 10 10 10 10 11 12 15 17 18 19 20 19
15 13 10 9 5 10 4 8 6 9 9 12 14 16 15 16 19 22 24 26 26 28 28 28 28 28 27 25 23 21 20 19 17 14 13 12 11 11 12 12 13 13 15 15 17 19 20 20 21
5 6 8 7 10 7 8 7 3 6 12 14 18 19 18 18 21 25 27 29 30 30 30 28 26 25 23 21 18 16 15 15 15 13 10 9 9 9 10 11 13 14 16 17 19 20 21 23 23
13 8 5 2 3 8 16 13 6 7 9 17 22 22 21 21 22 25 28 29 29 28 27 26 23 22 19 17 16 14 14 14 12 10 8 8 9 9 11 13 15 17 18 19 21 23 24 24 24
6 10 2 5 5 7 0 11 11 4 7 19 27 29 27 25 27 29 30 30 28 26 24 22 19 19 16 14 13 13 13 12 10 9 9 10 12 14 16 17 20 22 24 26 28 29 31 32 31
17 13 7 6 6 2 3 8 5 3 5 13 28 30 27 26 27 29 30 29 27 25 22 20 18 16 15 12 11 10 9 9 8 9 11 12 14 15 16 17 18 21 23 25 26 28 30 32 33
8 10 2 4 1 2 6 4 4 4 6 15 28 30 30 29 30 31 30 29 27 24 21 18 16 15 14 11 9 7 6 7 7 6 6 9 11 12 14 16 18 21 23 26 29 33 35 37 37
7 11 5 5 5 6 4 6 8 10 13 16 25 32 33 31 30 32 32 31 28 25 22 18 15 13 12 9 8 5 2 3 4 6 7 10 12 14 16 19 22 25 29 32 35 37 39 39 39
7 7 5 3 5 4 3 4 3 10 18 22 28 34 36 35 34 33 33 32 29 26 23 20 17 13 10 8 4 1 3 4 6 8 10 13 16 19 22 24 26 29 32 35 38 39 40 40 39
11 11 16 7 6 5 3 5 2 2 14 25 29 34 35 34 33 33 34 34 33 29 25 22 19 16 11 7 3 2 3 5 9 12 14 16 19 21 24 27 30 33 37 40 41 41 40 40 40
Wind_Direction
357 114 139 112 207 179 111 110 326 160 165 24 20 323 30 26 13 41 12 128 139 174 182 182 178 174 179 182 177 165 158 152 144 135 136 116 50 14 28 23 4 0 25 26 24 28 26 26 34
80 122 110 154 195 149 109 113 156 67 56 351 147 226 114 72 44 53 50 85 128 169 183 186 189 179 183 181 178 173 170 170 162 155 141 131 67 41 6 8 11 14 23 27 25 29 32 32 39
102 119 216 109 119 116 122 162 121 87 360 228 192 48 37 55 45 66 54 105 122 162 182 190 193 190 189 190 188 192 192 186 180 173 162 156 124 1 1 358 356 3 26 34 24 25 36 40 52
91 38 67 222 112 99 92 122 193 166 151 116 272 122 72 44 51 41 89 105 124 157 177 190 194 196 188 195 195 197 193 191 186 181 175 176 220 349 356 354 349 6 41 37 21 22 31 39 44
60 42 148 132 122 123 205 292 227 176 137 115 154 96 79 42 76 97 120 116 124 154 179 190 195 198 192 196 200 198 196 198 198 194 200 209 256 334 354 1 10 13 37 35 18 18 27 38 44
76 277 197 186 149 153 214 235 213 180 144 129 116 120 87 88 124 128 144 141 138 155 175 193 198 198 191 198 207 209 204 205 207 213 219 230 261 314 350 12 25 32 33 31 22 23 26 31 40
74 288 142 148 155 178 172 218 213 157 153 113 114 146 128 72 128 173 185 185 173 170 173 187 199 205 195 198 205 211 217 215 216 224 230 235 259 301 331 2 18 31 36 30 21 17 24 31 35
100 104 150 184 183 173 142 185 164 207 129 81 114 151 161 267 279 223 214 210 201 194 187 189 197 204 202 214 205 210 215 223 223 233 242 250 258 268 306 329 335 357 20 26 19 4 0 348 335
107 190 181 181 175 156 151 185 182 269 248 87 98 140 230 257 245 219 216 217 211 207 206 203 203 206 208 206 214 208 220 220 227 231 238 247 247 265 304 325 329 343 359 351 12 4 348 335 326
256 246 195 148 172 166 162 232 207 218 203 184 144 317 278 248 236 238 229 224 221 218 218 219 216 210 211 207 213 207 212 222 224 231 237 243 264 283 294 293 310 320 334 349 347 344 345 327 312
164 241 155 198 206 181 219 239 200 225 236 169 227 296 269 223 209 217 224 226 228 231 233 230 225 217 210 210 201 208 207 217 221 234 243 242 286 280 276 291 301 308 321 321 330 334 326 324 312
230 206 198 176 196 168 210 247 239 232 214 216 251 246 182 154 149 155 180 217 235 237 236 235 229 218 207 203 195 198 204 210 221 220 227 232 248 268 269 285 287 295 303 308 310 320 316 312 302
232 215 205 220 215 232 226 241 266 206 225 232 210 173 156 137 101 359 308 287 281 271 256 238 229 212 200 190 192 193 203 208 208 207 215 219 227 243 269 272 270 281 282 290 306 311 318 308 300
174 245 267 266 248 222 217 227 188 157 153 153 155 157 152 165 203 266 273 281 282 278 271 253 216 195 186 184 185 189 183 193 205 207 218 221 234 240 232 239 276 234 289 313 320 314 320 322 312
216 282 275 241 233 219 166 175 196 158 163 155 152 143 129 89 1 326 333 324 297 281 246 204 171 175 178 180 181 165 165 157 179 179 212 221 227 223 222 220 254 264 289 310 321 317 314 315 317
234 256 268 136 169 165 199 222 152 166 183 173 158 154 173 190 224 327 329 336 331 98 153 158 161 165 169 171 166 158 148 147 152 194 193 148 113 127 146 150 316 337 317 314 315 317 309 304 305
215 258 229 283 202 147 221 240 164 184 206 196 186 192 196 199 212 169 129 117 114 122 131 144 151 157 161 165 159 158 151 157 152 144 144 134 160 74 10 316 338 330 323 317 314 306 302 299 298
215 215 224 239 170 206 207 245 173 183 191 195 191 184 163 158 162 143 132 125 120 126 133 143 148 153 159 160 158 158 146 146 131 134 120 105 78 344 325 324 316 310 299 296 293 301 314 315 319
236 216 210 209 186 238 245 253 208 193 189 191 191 180 158 141 143 139 138 133 128 129 132 136 141 140 141 141 140 146 157 161 183 155 117 135 103 89 68 57 26 9 359 1 355 348 345 338 337
218 238 243 268 238 224 262 253 227 199 217 207 188 174 163 140 133 141 143 142 138 135 134 134 135 136 140 146 155 156 138 121 112 110 110 104 99 92 82 68 52 37 26 13 5 4 4 360 355
224 231 238 253 152 231 279 264 220 186 177 171 172 164 152 145 138 137 139 140 141 140 139 139 136 137 135 132 130 127 126 118 114 109 103 92 81 70 57 45 35 23 14 7 2 357 355 356 357
230 213 231 245 244 262 199 284 207 196 185 186 173 167 158 149 142 137 135 133 135 132 130 130 128 127 125 126 126 126 123 120 107 96 84 73 61 48 36 26 16 8 3 357 355 352 349 345 343
243 149 206 226 240 270 210 261 159 173 211 195 181 173 164 157 151 143 138 135 133 132 132 131 130 127 125 126 124 120 113 104 98 89 79 69 54 39 25 14 7 0 357 353 348 344 343 341 337
133 102 88 114 215 252 231 218 213 204 218 180 179 177 172 165 158 151 144 139 136 136 135 134 134 130 130 129 124 117 106 99 95 84 72 58 43 30 18 10 1 355 349 345 343 341 337 334 330
176 155 189 226 208 250 276 211 255 221 187 185 175 176 177 172 167 161 155 149 146 143 141 139 140 134 130 126 118 113 110 107 92 76 47 29 15 5 358 353 347 343 340 338 336 334 332 331 328
194 194 197 221 207 210 138 225 235 129 145 175 179 176 175 175 175 170 164 158 154 151 150 149 147 141 135 127 115 103 91 74 57 40 22 2 354 346 341 337 335 332 330 327 326 324 323 321 319
180 213 202 100 53 262 209 228 213 151 153 165 173 175 180 182 181 177 171 167 162 160 159 159 156 149 141 133 115 94 59 51 28 1 352 326 322 320 322 321 320 320 320 322 324 324 323 321 319
196 147 180 216 222 232 219 253 232 199 185 175 181 185 184 184 184 182 179 174 171 169 167 166 162 157 147 135 118 100 67 23 344 328 341 320 319 319 325 327 329 327 325 324 324 322 320 317 315
171 189 206 210 217 221 260 230 205 200 187 186 190 189 187 187 187 186 184 181 179 178 177 175 172 169 164 155 139 94 332 350 318 329 335 327 329 330 330 328 326 324 321 320 319 317 315 313 311
233 219 191 201 186 238 303 247 189 203 190 188 190 192 191 190 188 188 188 187 186 186 184 184 184 178 187 180 188 237 296 334 334 338 333 327 325 324 324 323 321 319 319 318 318 317 316 313 311